Location: Ballingbuur
(53.0000°N, 5.7667°E)
Time: 09:00:26
(UTC+00:00)

Cosmos 1356 - Pass Details

Date: 17 April 2021
Orbit: 438 x 442 km, 81.1° (Epoch: 17 May)

Event Time Altitude Azimuth Distance (km) Brightness Sun altitude
Rises 20:02:08 0° 347° (NNW) 2,454 8.0 -11.6°
Reaches altitude 10° 20:04:13 10° 349° (N) 1,577 6.9 -11.9°
Maximum altitude 20:07:39 77° 76° (ENE) 462 3.3 -12.3°
Enters shadow 20:10:10 17° 162° (SSE) 1,194 5.1 -12.6°
